TimeEDT,TemperatureF,Dew PointF,Humidity,Sea Level PressureIn,VisibilityMPH,Wind Direction,Wind SpeedMPH,Gust SpeedMPH,PrecipitationIn,Events,Conditions,WindDirDegrees,DateUTC
12:35 AM,77.0,68.0,74,29.75,10.0,SW,9.2,-,N/A,,Clear,220,2012-09-08 04:35:00
12:55 AM,77.0,68.0,74,29.74,10.0,SW,9.2,-,N/A,,Clear,220,2012-09-08 04:55:00
1:15 AM,77.0,68.0,74,29.75,10.0,SW,10.4,16.1,N/A,,Scattered Clouds,230,2012-09-08 05:15:00
1:35 AM,77.0,68.0,74,29.74,10.0,SW,9.2,-,N/A,,Scattered Clouds,230,2012-09-08 05:35:00
1:55 AM,77.0,68.0,74,29.75,10.0,WSW,8.1,-,N/A,,Clear,240,2012-09-08 05:55:00
2:15 AM,77.0,68.0,74,29.79,10.0,NW,20.7,32.2,N/A,,Scattered Clouds,310,2012-09-08 06:15:00
2:35 AM,69.8,64.4,83,29.79,10.0,NNW,10.4,24.2,N/A,,Overcast,330,2012-09-08 06:35:00
2:55 AM,68.0,64.4,88,29.79,-9999.0,NW,9.2,18.4,N/A,Rain,Light Rain,320,2012-09-08 06:55:00
3:15 AM,66.2,64.4,94,29.78,-9999.0,NW,6.9,-,N/A,Rain,Light Rain,310,2012-09-08 07:15:00
3:35 AM,66.2,64.4,94,29.78,-9999.0,WNW,3.5,-,N/A,,Unknown,300,2012-09-08 07:35:00
3:55 AM,66.2,64.4,94,29.77,-9999.0,West,4.6,-,N/A,,Unknown,270,2012-09-08 07:55:00
4:15 AM,66.2,64.4,94,29.76,-9999.0,WSW,5.8,-,N/A,,Unknown,240,2012-09-08 08:15:00
4:35 AM,66.2,64.4,94,29.76,-9999.0,WSW,6.9,-,N/A,,Unknown,240,2012-09-08 08:35:00
4:55 AM,66.2,66.2,100,29.74,-9999.0,SSW,9.2,-,N/A,,Unknown,210,2012-09-08 08:55:00
5:15 AM,66.2,64.4,94,29.74,-9999.0,WSW,4.6,-,N/A,,Unknown,240,2012-09-08 09:15:00
5:35 AM,66.2,64.4,94,29.75,-9999.0,WSW,5.8,-,N/A,,Unknown,240,2012-09-08 09:35:00
5:55 AM,66.2,66.2,100,29.74,-9999.0,SW,6.9,-,N/A,,Unknown,230,2012-09-08 09:55:00
6:15 AM,66.2,66.2,100,29.74,-9999.0,SW,5.8,-,N/A,,Unknown,230,2012-09-08 10:15:00
6:35 AM,66.2,66.2,100,29.73,-9999.0,WSW,6.9,-,N/A,,Overcast,240,2012-09-08 10:35:00
6:55 AM,66.2,66.2,100,29.73,-9999.0,WSW,6.9,-,N/A,,Overcast,240,2012-09-08 10:55:00
7:15 AM,66.2,66.2,100,29.73,-9999.0,WSW,6.9,-,N/A,,Overcast,240,2012-09-08 11:15:00
7:35 AM,66.2,66.2,100,29.73,-9999.0,WSW,5.8,-,N/A,,Overcast,240,2012-09-08 11:35:00
7:55 AM,68.0,66.2,94,29.74,-9999.0,Calm,Calm,-,N/A,,Overcast,0,2012-09-08 11:55:00
8:15 AM,68.0,66.2,94,29.74,-9999.0,West,8.1,-,N/A,,Overcast,260,2012-09-08 12:15:00
8:35 AM,68.0,66.2,94,29.75,-9999.0,West,6.9,-,N/A,,Overcast,270,2012-09-08 12:35:00
8:55 AM,62.6,60.8,94,29.79,-9999.0,North,17.3,32.2,N/A,,Overcast,350,2012-09-08 12:55:00
9:15 AM,60.8,60.8,100,29.80,-9999.0,North,11.5,21.9,N/A,,Overcast,360,2012-09-08 13:15:00
9:35 AM,60.8,60.8,100,29.81,-9999.0,NNE,16.1,21.9,N/A,,Overcast,20,2012-09-08 13:35:00
9:55 AM,60.8,59.0,94,29.81,-9999.0,NNE,9.2,17.3,N/A,,Overcast,30,2012-09-08 13:55:00
10:15 AM,60.8,59.0,94,29.84,-9999.0,North,9.2,-,N/A,,Overcast,10,2012-09-08 14:15:00
10:35 AM,60.8,59.0,94,29.87,-9999.0,North,4.6,-,N/A,,Overcast,360,2012-09-08 14:35:00
10:55 AM,60.8,59.0,94,29.89,-9999.0,NNW,6.9,16.1,N/A,,Overcast,340,2012-09-08 14:55:00
11:15 AM,60.8,57.2,88,29.89,-9999.0,North,8.1,-,N/A,,Unknown,10,2012-09-08 15:15:00
11:35 AM,60.8,57.2,88,29.88,-9999.0,North,5.8,-,N/A,,Unknown,10,2012-09-08 15:35:00
11:55 AM,60.8,59.0,94,29.89,-9999.0,NNE,3.5,-,N/A,,Unknown,30,2012-09-08 15:55:00
12:15 PM,60.8,57.2,88,29.89,-9999.0,Calm,Calm,-,N/A,,Unknown,0,2012-09-08 16:15:00
12:35 PM,60.8,59.0,94,29.91,-9999.0,Calm,Calm,-,N/A,,Mostly Cloudy,0,2012-09-08 16:35:00
12:55 PM,60.8,59.0,94,29.88,-9999.0,ENE,3.5,-,N/A,,Unknown,70,2012-09-08 16:55:00
1:15 PM,62.6,59.0,88,29.92,-9999.0,West,5.8,-,N/A,,Unknown,280,2012-09-08 17:15:00
1:35 PM,62.6,59.0,88,29.91,-9999.0,NW,8.1,-,N/A,,Mostly Cloudy,310,2012-09-08 17:35:00
1:55 PM,62.6,57.2,82,29.91,-9999.0,NNW,8.1,-,N/A,,Mostly Cloudy,330,2012-09-08 17:55:00
2:15 PM,62.6,57.2,82,29.91,-9999.0,NNW,8.1,-,N/A,,Scattered Clouds,340,2012-09-08 18:15:00
2:35 PM,64.4,55.4,73,29.90,-9999.0,North,9.2,-,N/A,,Clear,10,2012-09-08 18:35:00
2:55 PM,66.2,55.4,68,29.90,-9999.0,North,5.8,-,N/A,,Scattered Clouds,350,2012-09-08 18:55:00
3:15 PM,68.0,57.2,68,29.90,-9999.0,North,5.8,-,N/A,,Scattered Clouds,10,2012-09-08 19:15:00
3:35 PM,69.8,59.0,68,29.90,-9999.0,NW,3.5,-,N/A,,Scattered Clouds,310,2012-09-08 19:35:00
3:55 PM,68.0,53.6,60,29.90,-9999.0,North,5.8,-,N/A,,Scattered Clouds,10,2012-09-08 19:55:00
4:15 PM,69.8,55.4,60,29.90,10.0,NNW,4.6,-,N/A,,Mostly Cloudy,340,2012-09-08 20:15:00
4:35 PM,71.6,55.4,57,29.89,10.0,NNW,6.9,-,N/A,,Mostly Cloudy,340,2012-09-08 20:35:00
4:55 PM,71.6,53.6,53,29.89,10.0,North,6.9,-,N/A,,Scattered Clouds,350,2012-09-08 20:55:00
5:15 PM,71.6,51.8,50,29.89,10.0,North,5.8,-,N/A,,Scattered Clouds,350,2012-09-08 21:15:00
5:35 PM,71.6,51.8,50,29.89,10.0,Calm,Calm,-,N/A,,Scattered Clouds,0,2012-09-08 21:35:00
5:55 PM,71.6,51.8,50,29.89,10.0,NNE,3.5,-,N/A,,Scattered Clouds,30,2012-09-08 21:55:00
6:15 PM,71.6,53.6,53,29.90,10.0,Calm,Calm,-,N/A,,Mostly Cloudy,0,2012-09-08 22:15:00
6:35 PM,71.6,53.6,53,29.90,10.0,WNW,3.5,-,N/A,,Overcast,300,2012-09-08 22:35:00
6:55 PM,69.8,53.6,56,29.90,10.0,Calm,Calm,-,N/A,,Mostly Cloudy,0,2012-09-08 22:55:00
7:15 PM,68.0,55.4,64,29.90,10.0,Calm,Calm,-,N/A,,Overcast,0,2012-09-08 23:15:00
7:35 PM,66.2,59.0,78,29.90,10.0,Calm,Calm,-,N/A,,Overcast,0,2012-09-08 23:35:00
7:55 PM,64.4,59.0,83,29.90,10.0,Calm,Calm,-,N/A,,Mostly Cloudy,0,2012-09-08 23:55:00
8:15 PM,62.6,59.0,88,29.91,10.0,West,3.5,-,N/A,,Scattered Clouds,280,2012-09-09 00:15:00
8:35 PM,60.8,59.0,94,29.91,-9999.0,WNW,3.5,-,N/A,,Unknown,290,2012-09-09 00:35:00
8:55 PM,60.8,59.0,94,29.92,-9999.0,WNW,4.6,-,N/A,,Unknown,290,2012-09-09 00:55:00
9:15 PM,60.8,59.0,94,29.92,-9999.0,WNW,3.5,-,N/A,,Unknown,300,2012-09-09 01:15:00
9:35 PM,59.0,59.0,100,29.93,-9999.0,Calm,Calm,-,N/A,,Unknown,0,2012-09-09 01:35:00
9:55 PM,59.0,57.2,94,29.95,-9999.0,Calm,Calm,-,N/A,,Unknown,0,2012-09-09 01:55:00
10:15 PM,57.2,57.2,100,29.95,-9999.0,WNW,3.5,-,N/A,,Unknown,290,2012-09-09 02:15:00
10:35 PM,57.2,57.2,100,29.96,-9999.0,WNW,3.5,-,N/A,,Unknown,300,2012-09-09 02:35:00
10:55 PM,55.4,55.4,100,29.96,-9999.0,NW,4.6,-,N/A,,Unknown,310,2012-09-09 02:55:00
11:15 PM,55.4,55.4,100,29.97,-9999.0,NW,3.5,-,N/A,,Unknown,310,2012-09-09 03:15:00
11:35 PM,55.4,55.4,100,29.97,-9999.0,WNW,3.5,-,N/A,,Unknown,300,2012-09-09 03:35:00